Location: *
(49.0233°N, 7.9081°E)
Time: 08:44:50
(UTC+00:00)

Daily predictions for brighter satellites

Satellite Brightness Start Highest point End
(mag) Time Altitude Azimuth Time Altitude Azimuth Time Altitude Azimuth
Cosmos 1743 4.5 17:50:53 10° SW 17:54:31 38° WNW 17:58:11 10° N
GEOS 3 Rocket 4.0 17:50:26 10° ESE 17:55:18 47° NE 18:00:14 10° NNW
COSMOS 2428 3.2 17:51:10 10° NNW 17:56:49 68° WSW 18:02:26 10° SSE
ARGOS 4.4 17:59:00 10° ESE 18:03:02 22° ENE 18:07:05 10° N
Cosmos 2151 Rocket 4.1 18:01:01 10° SSW 18:05:23 64° WNW 18:09:47 10° N
Meteor 1-4 Rocket 3.5 18:02:57 10° N 18:06:01 27° ENE 18:09:02 10° SE
USA 186 3.2 18:06:00 10° ESE 18:08:43 22° ENE 18:11:26 10° NNE
Cosmos 2227 Rocket 3.0 18:05:20 10° SSE 18:10:05 29° ESE 18:14:52 10° NE
Cosmos 1455 Rocket 4.3 18:07:49 10° SE 18:11:08 21° E 18:14:28 10° NE
YAOGAN 6 3.9 18:09:42 10° S 18:13:14 45° W 18:16:50 10° NNW
Timation 2 Rocket 4.4 18:06:54 10° SW 18:13:25 70° WNW 18:19:42 10° NNE
CZ-2D R/B 3.2 18:09:38 10° SSE 18:13:26 84° ENE 18:17:17 10° NNW
CZ-4 R/B 3.0 18:10:37 10° SSW 18:14:17 38° W 18:18:03 10° NNW
SJ-6B 3.9 18:11:36 10° SE 18:15:04 28° ENE 18:18:33 10° N
SPOT 3 Rocket 4.3 18:10:42 10° SE 18:15:18 34° ENE 18:19:55 10° N
Cosmos 2219 3.4 18:10:09 10° S 18:15:41 51° ESE 18:21:15 10° NE
Cosmos 1371 Rocket 4.4 18:10:48 10° S 18:15:47 43° ESE 18:20:51 10° NE
Cosmos 2297 Rocket 2.7 18:15:05 10° S 18:20:10 35° ESE 18:25:16 10° NE
Cosmos 676 Rocket 4.3 18:19:58 10° NNW 18:25:04 47° ENE 18:30:06 10° SE
Cosmos 1023 Rocket 4.5 18:24:28 10° NNW 18:29:36 62° ENE 18:34:39 10° SE
Lacrosse 5 rocket 1.7 18:31:20 10° SSW 18:34:40 35° SE 18:37:13 16° ENE
MOS 1 4.3 18:29:03 10° SSE 18:34:44 76° ENE 18:40:26 10° NNW
Okean 1 Rocket 3.4 18:31:51 10° SSW 18:36:09 69° W 18:40:33 10° N
In-Cosmos 22 4.1 18:30:57 10° N 18:36:20 69° ENE 18:41:48 10° SSE
Cosmos 405 Rocket 2.9 18:33:32 10° SSE 18:37:03 44° E 18:40:38 10° NNE
GENESIS II 4.3 18:33:15 10° NW 18:37:23 87° SW 18:40:52 14° SE
Cosmos 2341 Rocket 3.9 18:32:46 10° N 18:39:02 76° E 18:45:15 10° SSE
Cosmos 2181 Rocket 4.2 18:33:41 10° SSE 18:39:41 50° E 18:45:47 10° NNE
Cosmos 1939 Rocket 3.5 18:36:58 10° S 18:40:46 56° W 18:44:35 10° NNW
Cosmos 1190 Rocket 4.1 18:35:48 10° NNW 18:41:08 85° WSW 18:46:23 10° SSE
H-2A R/B 2.4 18:40:24 14° SE 18:44:20 43° ENE 18:49:09 10° N
Cosmos 1437 Rocket 3.2 18:42:52 10° N 18:46:28 39° ENE 18:48:19 23° SE
Cosmos 1674 3.3 18:43:27 10° N 18:46:53 34° ENE 18:48:20 25° ESE
Cosmos 614 Rocket 4.2 18:42:04 10° NNW 18:47:16 72° WSW 18:52:25 10° SSE
Resurs 1-3 4.4 18:47:34 22° ESE 18:49:36 33° ENE 18:53:32 10° N
Cosmos 2237 Rocket 2.6 18:44:08 10° NNW 18:49:47 66° WSW 18:55:26 10° SSE
Cosmos 2333 Rocket 4.3 18:45:06 10° NW 18:49:52 28° WSW 18:54:38 10° SSW
Meteor 1-15 Rocket 4.2 18:44:31 10° S 18:50:18 76° E 18:56:13 10° NNE
Cosmos 2366 rocket 4.1 18:45:30 10° N 18:51:47 56° ENE 18:58:00 10° SSE
ADEOS Rocket 3.9 18:45:28 10° NNE 18:52:29 42° E 18:59:46 10° SSE
Cosmos 2218 Rocket 4.1 18:46:19 10° N 18:52:39 60° ENE 18:58:51 10° SSE
Ariane Rocket 4.1 18:53:47 10° S 18:58:38 46° W 19:03:33 10° NNW
Meteor 1-24 Rocket 4.0 18:53:09 10° N 18:58:51 54° ENE 19:03:15 18° SE
Cosmos 1980 4.5 18:54:25 10° NW 18:59:54 52° WSW 19:05:20 10° S
SL-8 Rocket 3.9 18:53:55 10° N 19:00:09 78° E 19:06:18 10° SSE
FREGAT/IRIS 3.3 18:57:49 10° S 19:00:34 49° W 19:03:20 10° NNW
Cosmos 389 Rocket 3.5 18:57:17 10° NNW 19:00:36 45° W 19:03:53 10° S
Resurs 01 Rocket 2.3 19:02:49 29° ESE 19:04:06 35° ENE 19:08:11 10° N
CZ-2C R/B 3.5 19:00:02 10° NNE 19:04:31 75° ESE 19:08:56 10° S
SJ-11-01 4.4 19:00:01 10° S 19:04:46 78° WSW 19:09:32 10° NNW
EO 1 Delta rocket 4.5 18:59:20 10° S 19:05:42 74° W 19:10:50 10° NNW
Cosmos 1892 Rocket 3.9 19:03:46 10° NNW 19:08:11 65° W 19:12:32 10° S
Cosmos 1805 3.4 19:06:57 28° SSE 19:08:38 47° E 19:12:24 10° NNE
Cosmos 407 Rocket 4.5 19:04:13 10° NW 19:09:06 45° WSW 19:13:57 10° S
USA 234 4.0 19:03:18 10° ENE 19:09:34 50° NNW 19:15:51 10° W
SAR-Lupe-2 3.9 19:06:41 10° N 19:10:15 68° WNW 19:13:48 10° SSW
Cosmos 1959 Rocket 4.4 19:06:10 10° N 19:12:21 79° E 19:18:25 11° SSE
Cosmos 2056 Rocket 3.7 19:08:50 10° SSW 19:14:16 80° WNW 19:19:42 10° NNE
ASTEX 1 3.8 19:10:12 10° N 19:15:03 63° W 19:19:52 10° SSW
Cosmos 1420 Rocket 4.1 19:12:02 10° S 19:17:11 54° ESE 19:22:23 10° NNE
CZ-4C R/B 4.3 19:14:01 10° NW 19:19:04 24° N 19:24:41 10° ENE
KORONAS-FOTON 3.6 19:17:49 10° N 19:21:37 76° E 19:22:29 50° SSE
SL-16 R/B 2.2 19:17:10 10° NNW 19:22:53 88° WSW 19:26:03 28° SSE
CZ-2C R/B 4.3 19:18:42 10° NE 19:21:05 18° ENE 19:21:05 18° ENE
Cosmos 1140 Rocket 4.3 19:20:07 10° NNW 19:25:07 49° WSW 19:29:45 11° S
Cosmos 1624 Rocket 4.4 19:20:25 10° SW 19:25:34 63° WNW 19:30:45 10° NNE
ISS -3.9 19:23:40 10° WSW 19:26:55 84° SSW 19:26:55 84° SSW
ERBS 2.7 19:23:57 10° WNW 19:27:15 50° SW 19:27:32 49° SSW
RESURS DK-1 2.5 19:23:17 10° NNW 19:27:22 54° NE 19:27:47 52° E
SL-08 RB Rocket 3.7 19:26:58 39° SSE 19:28:38 72° ENE 19:33:19 10° N
SL-8 R/B 3.6 19:24:03 10° W 19:28:52 78° S 19:30:07 49° ESE
Cosmos 1741 Rocket 4.1 19:24:15 10° NNW 19:29:34 62° ENE 19:31:10 43° ESE
Cosmos 1626 3.6 19:26:47 10° N 19:28:57 25° NE 19:28:57 25° NE
Cosmos 2084 Rocket 3.7 19:26:44 10° SW 19:31:11 70° NW 19:35:37 10° NE
Meteor 2-5 Rocket 4.2 19:27:37 10° NNW 19:33:26 66° W 19:39:13 10° S
Spot 2 Rocket 3.8 19:34:39 43° E 19:35:14 45° ENE 19:40:02 10° N
Cosmos 1733 4.2 19:39:10 34° NNE 19:39:10 34° NNE 19:41:33 10° NNE
Cosmos 2082 3.6 19:33:18 10° SSW 19:39:01 83° ESE 19:44:47 10° NNE
USA 186 3.9 19:36:58 13° SSW 19:39:30 28° W 19:42:32 10° NW
Meteor 1-22 Rocket 4.3 19:34:53 10° S 19:40:59 82° E 19:47:07 10° NNE
Terra 3.9 19:42:20 14° NE 19:42:20 14° NE 19:44:03 10° NNE
ARGOS 3.4 19:39:17 22° S 19:42:48 69° WSW 19:48:12 10° NNW
Cosmos 1544 Rocket 4.3 19:44:05 10° SSW 19:48:29 55° WNW 19:52:52 10° N
Cosmos 1455 Rocket 4.2 19:44:24 10° SSW 19:48:39 45° WNW 19:52:58 10° N
SL-14 R/B 3.7 19:45:49 10° N 19:48:58 50° NNE 19:48:58 50° NNE
Cosmos 2227 Rocket 2.9 19:48:18 10° SW 19:53:50 54° NW 19:59:26 10° NNE
DMSP B5D2-2 4.2 19:51:12 10° NNE 19:56:01 56° E 19:56:01 56° E
Cosmos 1934 Rocket 4.3 19:50:49 10° N 19:56:42 45° ENE 19:56:55 44° E
Cosmos 1766 4.2 19:54:23 19° SW 19:56:55 47° WNW 20:00:44 10° N
MetOp-A 4.2 19:55:15 43° S 19:57:05 78° WSW 20:02:29 10° NNW
CZ-2C R/B 3.2 19:55:55 43° S 19:57:44 79° WSW 20:03:23 10° NNW
Cosmos 2297 Rocket 3.3 19:58:42 10° SW 20:04:06 45° NW 20:09:34 10° NNE
Cosmos 1626 Rocket 4.4 20:02:04 10° NNW 20:06:12 45° W 20:07:10 38° SW
Cosmos 1452 Rocket 3.6 20:03:11 10° SSW 20:08:25 73° WNW 20:13:42 10° NNE
Cosmos 1825 Rocket 4.4 20:09:13 10° N 20:12:10 41° N 20:12:10 41° N
Lacrosse 5 rocket 2.4 20:10:09 10° W 20:12:54 38° WNW 20:12:54 38° WNW
USA 245 4.3 20:14:12 67° E 20:14:20 67° ENE 20:19:46 10° N
Cosmos 1943 3.3 20:17:05 10° NNW 20:22:30 65° NE 20:22:30 65° NE
H-2A R/B 3.7 20:21:02 17° SW 20:23:56 28° W 20:28:19 10° NW
Cosmos 1758 Rocket 4.5 20:20:22 10° N 20:23:22 44° NNW 20:23:22 44° NNW
Nadezhda 3 Rocket 4.0 20:30:14 57° SSW 20:31:33 79° W 20:37:49 10° N
ADEOS Rocket 4.2 20:30:58 10° N 20:38:02 52° WNW 20:45:28 10° SW
Resurs 01 Rocket 3.3 20:40:24 28° W 20:40:39 28° W 20:44:32 10° NW
Meteor 1-21 Rocket 4.4 20:35:38 10° NNW 20:41:30 75° W 20:41:30 75° W
Cosmos 1605 Rocket 4.2 20:35:58 10° N 20:41:34 59° NE 20:41:34 59° NE
Cosmos 1821 Rocket 4.3 20:38:48 10° NNW 20:44:49 58° W 20:45:40 53° SW
USA 234 4.0 20:49:57 36° NE 20:51:56 46° N 20:58:07 10° WNW
ERS-1 Rocket 4.0 21:00:53 43° NNW 21:00:53 43° NNW 21:04:16 10° NNW
Cosmos 1603 4.4 20:57:02 10° NW 21:01:45 48° W 21:01:45 48° W
SPOT 5 4.2 21:05:28 37° NNW 21:05:28 37° NNW 21:08:32 10° NNW
CZ-2C R/B 3.3 20:58:09 10° N 21:02:36 54° NNW 21:02:36 54° NNW
SL-16 R/B 4.5 21:02:58 10° WNW 21:06:10 15° W 21:07:57 14° WSW
CZ-4C R/B 3.5 21:02:56 10° NW 21:09:22 43° NE 21:09:50 43° NE
Terra 3.7 21:21:14 27° NNW 21:21:14 27° NNW 21:23:23 10° NNW
Cosmos 2082 Rocket 4.5 21:33:01 10° N 21:36:20 15° NNE 21:36:22 15° NNE
Cosmos 2263 Rocket 4.0 22:00:09 25° N 22:00:09 25° N 22:02:39 10° NNE
USA 234 4.4 22:37:17 37° NW 22:37:17 37° NW 22:41:03 10° NW
CZ-4C R/B 4.0 22:51:22 10° NW 22:54:59 34° NW 22:54:59 34° NW
Cosmos 2082 Rocket 4.3 23:16:09 10° NNW 23:18:11 22° NNW 23:18:11 22° NNW
